Location: Klein M�hlingen
(51.9472°N, 11.7453°E)
Time: 01:14:45
(UTC+00:00)

Cosmos 968 Rocket - Pass Details

Date: 09 April 2020
Orbit: 741 x 771 km, 74.0° (Epoch: 30 May)

Event Time Altitude Azimuth Distance (km) Brightness Sun altitude
Exits shadow 22:25:36 63° 20° (NNE) 857 3.8 -29.1°
Drops below altitude 10° 22:30:01 10° 25° (NNE) 2,321 6.6 -29.3°
Sets 22:32:24 0° 26° (NNE) 3,255 7.5 -29.4°
